EN

Hourly Weather Accettura

Today, 1 December, Tuesday

Time Temperature Precipitation Wind Pressure Humidity
00:00 +4°C° 0 mm 1 mps 691 mmHg 82%
01:00 +3°C° 0 mm 1 mps 691 mmHg 82%
02:00 +3°C° 0 mm 1 mps 690 mmHg 82%
03:00 +3°C° 0 mm 1 mps 690 mmHg 82%
04:00 +3°C° 0 mm 1 mps 690 mmHg 83%
05:00 +3°C° 0 mm 1 mps 690 mmHg 84%
06:00 +3°C° 0 mm 1 mps 690 mmHg 85%
07:00 +2°C° 0 mm 0 mps 690 mmHg 87%
08:00 +4°C° 0 mm 0 mps 690 mmHg 83%
09:00 +6°C° 0 mm 1 mps 690 mmHg 79%
10:00 +8°C° 0 mm 1 mps 691 mmHg 75%
11:00 +8°C° 0 mm 1 mps 690 mmHg 73%
12:00 +9°C° 0 mm 1 mps 690 mmHg 71%
13:00 +10°C° 0 mm 1 mps 690 mmHg 69%
14:00 +8°C° 0 mm 2 mps 689 mmHg 73%
15:00 +8°C° 0 mm 2 mps 689 mmHg 77%
16:00 +7°C° 0 mm 2 mps 688 mmHg 81%
17:00 +6°C° 0 mm 2 mps 688 mmHg 84%
18:00 +6°C° 0 mm 1 mps 688 mmHg 88%
19:00 +5°C° 0 mm 1 mps 688 mmHg 91%
20:00 +6°C° 0 mm 1 mps 688 mmHg 90%
21:00 +6°C° 0 mm 1 mps 688 mmHg 90%
22:00 +6°C° 0 mm 1 mps 688 mmHg 89%
23:00 +5°C° 0 mm 2 mps 688 mmHg 90%

Tomorrow, 2 December, Wednesday

Time Temperature Precipitation Wind Pressure Humidity
00:00 +5°C° 0 mm 2 mps 687 mmHg 90%
01:00 +5°C° 0 mm 2 mps 687 mmHg 90%
02:00 +5°C° 0 mm 2 mps 687 mmHg 91%
03:00 +5°C° 0 mm 2 mps 687 mmHg 91%
04:00 +5°C° 0 mm 2 mps 687 mmHg 92%
05:00 +5°C° 0 mm 2 mps 687 mmHg 91%
06:00 +5°C° 0 mm 2 mps 687 mmHg 91%
07:00 +5°C° 0 mm 2 mps 687 mmHg 91%
08:00 +6°C° 0 mm 2 mps 687 mmHg 86%
09:00 +7°C° 0 mm 2 mps 687 mmHg 82%
10:00 +9°C° 0 mm 2 mps 688 mmHg 77%
11:00 +9°C° 0 mm 2 mps 687 mmHg 74%
12:00 +10°C° 0 mm 2 mps 687 mmHg 71%
13:00 +12°C° 0 mm 2 mps 687 mmHg 68%
14:00 +10°C° 0 mm 2 mps 687 mmHg 72%
15:00 +9°C° 0 mm 2 mps 686 mmHg 77%
16:00 +9°C° 0 mm 2 mps 686 mmHg 81%
17:00 +8°C° 0 mm 2 mps 685 mmHg 83%
18:00 +8°C° 0 mm 2 mps 685 mmHg 85%
19:00 +7°C° 0 mm 2 mps 685 mmHg 87%
20:00 +7°C° 0 mm 2 mps 685 mmHg 85%
21:00 +7°C° 0 mm 2 mps 684 mmHg 83%
22:00 +7°C° 0 mm 2 mps 684 mmHg 81%
23:00 +7°C° 0 mm 2 mps 684 mmHg 81%

Day after tomorrow, 3 December, Thursday

Time Temperature Precipitation Wind Pressure Humidity
00:00 +7°C° 0 mm 2 mps 684 mmHg 81%
01:00 +7°C° 0 mm 2 mps 684 mmHg 80%
02:00 +7°C° 0.1 mm 2 mps 683 mmHg 81%
03:00 +7°C° 0.1 mm 2 mps 683 mmHg 82%
04:00 +7°C° 0.1 mm 2 mps 683 mmHg 82%
05:00 +7°C° 0.1 mm 2 mps 683 mmHg 84%
06:00 +6°C° 0.1 mm 2 mps 683 mmHg 85%
07:00 +6°C° 0.1 mm 2 mps 683 mmHg 87%
08:00 +7°C° 0.1 mm 2 mps 683 mmHg 83%
09:00 +9°C° 0.1 mm 2 mps 684 mmHg 79%
10:00 +10°C° 0.1 mm 2 mps 684 mmHg 75%
11:00 +10°C° 1.3 mm 2 mps 684 mmHg 76%
12:00 +10°C° 1.3 mm 2 mps 683 mmHg 77%
13:00 +10°C° 1.3 mm 2 mps 683 mmHg 78%
14:00 +9°C° 3.2 mm 2 mps 683 mmHg 82%
15:00 +9°C° 3.2 mm 1 mps 682 mmHg 86%
16:00 +8°C° 3.2 mm 1 mps 682 mmHg 89%
17:00 +8°C° 1.9 mm 1 mps 682 mmHg 90%
18:00 +8°C° 1.9 mm 1 mps 682 mmHg 91%
19:00 +7°C° 1.9 mm 1 mps 682 mmHg 92%
20:00 +7°C° 0.2 mm 1 mps 682 mmHg 92%
21:00 +7°C° 0.2 mm 1 mps 682 mmHg 91%
22:00 +5°C° 0.2 mm 2 mps 682 mmHg 91%
23:00 +6°C° 0 mm 1 mps 682 mmHg 91%

4 December, Friday

Time Temperature Precipitation Wind Pressure Humidity
00:00 +5°C° 0 mm 1 mps 682 mmHg 90%
01:00 +5°C° 0 mm 1 mps 682 mmHg 90%
02:00 +5°C° 0 mm 1 mps 682 mmHg 90%
03:00 +3°C° 0 mm 2 mps 682 mmHg 89%
04:00 +3°C° 0 mm 2 mps 682 mmHg 89%
05:00 +3°C° 0 mm 2 mps 682 mmHg 88%
06:00 +4°C° 0 mm 1 mps 682 mmHg 87%
07:00 +4°C° 0 mm 1 mps 682 mmHg 86%
08:00 +5°C° 0 mm 1 mps 682 mmHg 82%
09:00 +5°C° 0 mm 2 mps 683 mmHg 77%
10:00 +7°C° 0 mm 2 mps 683 mmHg 73%
11:00 +8°C° 0 mm 2 mps 683 mmHg 69%
12:00 +9°C° 0 mm 2 mps 683 mmHg 65%
13:00 +9°C° 0 mm 3 mps 683 mmHg 62%
14:00 +8°C° 0 mm 3 mps 683 mmHg 67%
15:00 +8°C° 0 mm 2 mps 683 mmHg 72%
16:00 +7°C° 0 mm 2 mps 683 mmHg 77%
17:00 +6°C° 0 mm 2 mps 683 mmHg 79%
18:00 +5°C° 0 mm 2 mps 683 mmHg 82%
19:00 +5°C° 0 mm 2 mps 683 mmHg 85%
20:00 +4°C° 0 mm 2 mps 683 mmHg 84%
21:00 +4°C° 0 mm 2 mps 683 mmHg 84%
22:00 +4°C° 0 mm 2 mps 683 mmHg 84%
23:00 +4°C° 0 mm 2 mps 683 mmHg 84%

5 December, Saturday

Time Temperature Precipitation Wind Pressure Humidity
00:00 +4°C° 0 mm 2 mps 682 mmHg 84%
01:00 +4°C° 0 mm 2 mps 682 mmHg 84%
02:00 +4°C° 0 mm 2 mps 682 mmHg 85%
03:00 +4°C° 0 mm 2 mps 682 mmHg 86%
04:00 +4°C° 0 mm 2 mps 682 mmHg 87%
05:00 +4°C° 0 mm 2 mps 682 mmHg 86%
06:00 +4°C° 0 mm 2 mps 681 mmHg 86%
07:00 +4°C° 0 mm 2 mps 681 mmHg 85%
08:00 +5°C° 0 mm 3 mps 682 mmHg 81%
09:00 +7°C° 0 mm 3 mps 682 mmHg 76%
10:00 +8°C° 0 mm 4 mps 683 mmHg 71%
11:00 +8°C° 0 mm 4 mps 683 mmHg 70%
12:00 +9°C° 0 mm 5 mps 682 mmHg 69%
13:00 +10°C° 0 mm 5 mps 682 mmHg 69%
14:00 +10°C° 0 mm 5 mps 682 mmHg 73%
15:00 +9°C° 0 mm 5 mps 681 mmHg 77%
16:00 +9°C° 0 mm 5 mps 681 mmHg 81%
17:00 +8°C° 0.4 mm 5 mps 681 mmHg 84%
18:00 +8°C° 0.4 mm 5 mps 680 mmHg 88%
19:00 +8°C° 0.4 mm 5 mps 680 mmHg 91%
20:00 +8°C° 0.8 mm 5 mps 680 mmHg 91%
21:00 +8°C° 0.8 mm 5 mps 680 mmHg 92%
22:00 +8°C° 0.8 mm 5 mps 680 mmHg 92%
23:00 +7°C° 0.8 mm 4 mps 680 mmHg 92%

6 December, Sunday

Time Temperature Precipitation Wind Pressure Humidity
00:00 +7°C° 0.8 mm 4 mps 679 mmHg 91%
01:00 +8°C° 0.8 mm 3 mps 679 mmHg 91%
02:00 +7°C° 1.8 mm 3 mps 679 mmHg 90%
03:00 +6°C° 1.8 mm 4 mps 679 mmHg 89%
04:00 +5°C° 1.8 mm 4 mps 679 mmHg 88%
05:00 +5°C° 0.6 mm 4 mps 679 mmHg 87%
06:00 +4°C° 0.6 mm 3 mps 680 mmHg 86%
07:00 +4°C° 0.6 mm 3 mps 680 mmHg 85%
08:00 +4°C° 0.1 mm 3 mps 681 mmHg 81%
09:00 +5°C° 0.1 mm 4 mps 681 mmHg 77%
10:00 +6°C° 0.1 mm 5 mps 682 mmHg 73%
11:00 +6°C° 0.3 mm 4 mps 682 mmHg 71%
12:00 +6°C° 0.3 mm 4 mps 682 mmHg 70%
13:00 +7°C° 0.3 mm 4 mps 682 mmHg 69%
14:00 +7°C° 0 mm 3 mps 683 mmHg 70%
15:00 +7°C° 0 mm 2 mps 683 mmHg 72%
16:00 +7°C° 0 mm 2 mps 683 mmHg 73%
17:00 +7°C° 0 mm 1 mps 683 mmHg 76%
18:00 +6°C° 0 mm 1 mps 683 mmHg 79%
19:00 +5°C° 0 mm 1 mps 684 mmHg 82%
20:00 +5°C° 0 mm 1 mps 684 mmHg 83%
21:00 +5°C° 0 mm 1 mps 684 mmHg 83%
22:00 +4°C° 0 mm 1 mps 684 mmHg 84%
23:00 +4°C° 0 mm 1 mps 684 mmHg 84%
Show more